Bat Cave, NC

10:28 AM EST on February 11, 2016 (GMT -0500)
Asheville Regional

Weather History for KAVL - July, 2008

Change the Weather History Date:

Wednesday, July 30, 2008

  Actual Average Record
Temperature  
Mean Temperature 78 °F 74 °F  
Max Temperature 91 °F 84 °F 93 °F (1954)
Min Temperature 65 °F 64 °F 54 °F (1897)
Degree Days  
Heating Degree Days 0 0  
Month to date heating degree days 1 0  
Since 1 June heating degree days 14  
Since 1 July heating degree days 1 0  
Cooling Degree Days 13 9  
Month to date cooling degree days 242 266  
Year to date cooling degree days 513 501  
Since 1 June cooling degree days 443  
Growing Degree Days 28 (Base 50)    
Moisture  
Dew Point 66 °F    
Average Humidity 69    
Maximum Humidity 100    
Minimum Humidity 38    
Precipitation  
Precipitation 0.00 in 0.14 in 1.70 in (1936)
Month to date precipitation 3.98 4.17  
Year to date precipitation 19.86 27.07  
Snow  
Snow 0.00 in 0.00 in 0.00 in ()
Month to date snowfall 0.0 0.0  
Since 1 June snowfall 0.0  
Since 1 July snowfall 0.0 0.0  
Snow Depth -    
Sea Level Pressure  
Sea Level Pressure 29.93 in    
Wind  
Wind Speed 5 mph (NNW)    
Max Wind Speed 16 mph    
Max Gust Speed 18 mph    
Visibility 6 miles    
Events Fog    
T = Trace of Precipitation, MM = Missing Value Source: NWS Daily Summary

Daily Weather History Graph

Daily Weather History Graph

Search for Another Location

Airport or City:

Trip Planner

Search our weather history database for the weather conditions in past years. The results will help you decide how hot, cold, wet, or windy it might be!

Date:

Astronomy

Jul. 30, 2008 Rise Set
Actual Time 6:37 AM EDT 8:35 PM EDT
Civil Twilight 6:09 AM EDT 9:03 PM EDT
Nautical Twilight 5:35 AM EDT 9:37 PM EDT
Astronomical Twilight 4:58 AM EDT 10:13 PM EDT
Moon 4:15 AM EDT (7/30) 7:31 PM EDT (7/30)
Length of Visible Light 14h 53m
Length of Day
13h 57m
Waning Crescent, 4% of the Moon is Illuminated
Jul 30
Waning Crescent
Aug 1
New
Aug 8
First Quarter
Aug 16
Full
Aug 23
Last Quarter

Hourly Weather History & Observations

Time (EDT) Temp. Heat Index Dew Point Humidity Pressure Visibility Wind Dir Wind Speed Gust Speed Precip Events Conditions
12:54 AM 73.0 °F - 70.0 °F 90% 29.92 in 10.0 mi Calm Calm - N/A   Clear
1:54 AM 71.1 °F - 70.0 °F 96% 29.91 in 8.0 mi Calm Calm - N/A   Clear
2:54 AM 70.0 °F - 69.1 °F 97% 29.91 in 7.0 mi Calm Calm - N/A   Clear
3:13 AM 68.0 °F - 68.0 °F 100% 29.98 in 2.0 mi Calm Calm - N/A   Clear
3:21 AM 69.8 °F - 68.0 °F 94% 29.98 in 6.0 mi Calm Calm - N/A   Clear
3:31 AM 68.0 °F - 68.0 °F 100% 29.99 in 6.0 mi Calm Calm - N/A   Partly Cloudy
3:54 AM 68.0 °F - 68.0 °F 100% 29.92 in 4.0 mi NW 3.5 mph - N/A   Clear
4:07 AM 68.0 °F - 68.0 °F 100% 29.99 in 3.0 mi Calm Calm - N/A   Scattered Clouds
4:27 AM 68.0 °F - 68.0 °F 100% 29.99 in 2.0 mi NW 4.6 mph - N/A   Mostly Cloudy
4:29 AM 68.0 °F - 68.0 °F 100% 29.99 in 1.2 mi NW 3.5 mph - N/A   Mostly Cloudy
4:33 AM 66.2 °F - 66.2 °F 100% 29.99 in 0.2 mi Calm Calm - N/A Fog Fog
4:54 AM 66.9 °F - 66.9 °F 100% 29.92 in 0.5 mi West 3.5 mph - N/A Fog Fog
5:00 AM 66.2 °F - 66.2 °F 100% 29.99 in 2.0 mi Calm Calm - N/A   Mostly Cloudy
5:04 AM 66.2 °F - 66.2 °F 100% 29.99 in 5.0 mi Calm Calm - N/A   Scattered Clouds
5:48 AM 66.2 °F - 66.2 °F 100% 29.99 in 1.8 mi Calm Calm - N/A   Partly Cloudy
5:52 AM 66.2 °F - 66.2 °F 100% 29.99 in 1.0 mi Calm Calm - N/A   Mist
5:54 AM 66.0 °F - 66.0 °F 100% 29.91 in 1.0 mi Calm Calm - N/A   Mist
6:02 AM 66.2 °F - 66.2 °F 100% 29.99 in 1.5 mi Calm Calm - N/A   Partly Cloudy
6:05 AM 66.2 °F - 66.2 °F 100% 29.99 in 3.0 mi Calm Calm - N/A   Partly Cloudy
6:40 AM 66.2 °F - 66.2 °F 100% 30.00 in 0.8 mi Calm Calm - N/A   Mist
6:54 AM 66.0 °F - 66.0 °F 100% 29.93 in 0.2 mi Calm Calm - N/A Fog Fog
7:02 AM 66.2 °F - 66.2 °F 100% 30.01 in 1.0 mi Calm Calm - N/A   Overcast
7:04 AM 66.2 °F - 66.2 °F 100% 30.01 in 2.0 mi Calm Calm - N/A   Overcast
7:17 AM 66.2 °F - 66.2 °F 100% 30.01 in 3.0 mi Calm Calm - N/A   Scattered Clouds
7:54 AM 66.9 °F - 66.9 °F 100% 29.93 in 4.0 mi Calm Calm - N/A   Clear
8:54 AM 72.0 °F - 68.0 °F 87% 29.94 in 8.0 mi Calm Calm - N/A   Mostly Cloudy
9:54 AM 78.1 °F - 68.0 °F 71% 29.94 in 10.0 mi North 8.1 mph - N/A   Partly Cloudy
10:54 AM 81.0 °F 83.8 °F 68.0 °F 65% 29.93 in 10.0 mi Variable 5.8 mph - N/A   Clear
11:54 AM 82.4 °F 84.6 °F 66.2 °F 58% 30.01 in 10.0 mi North 9.2 mph - N/A   Partly Cloudy
12:54 PM 84.9 °F 87.1 °F 66.0 °F 53% 29.91 in 10.0 mi Variable 3.5 mph - N/A   Partly Cloudy
1:54 PM 87.1 °F 88.9 °F 64.9 °F 48% 29.88 in 10.0 mi Variable 5.8 mph - N/A   Clear
2:54 PM 88.0 °F 87.9 °F 61.0 °F 40% 29.85 in 10.0 mi North 9.2 mph - N/A   Partly Cloudy
3:54 PM 89.1 °F 89.0 °F 61.0 °F 39% 29.83 in 10.0 mi Variable 3.5 mph - N/A   Clear
4:54 PM 89.1 °F 89.0 °F 61.0 °F 39% 29.83 in 10.0 mi NW 11.5 mph - N/A   Partly Cloudy
5:54 PM 88.0 °F 88.4 °F 62.1 °F 42% 29.81 in 10.0 mi NNW 11.5 mph - N/A   Partly Cloudy
6:54 PM 84.9 °F 85.4 °F 62.1 °F 46% 29.83 in 10.0 mi NNW 10.4 mph - N/A   Clear
7:54 PM 82.9 °F 84.4 °F 64.0 °F 53% 29.85 in 10.0 mi NNW 11.5 mph - N/A   Clear
8:54 PM 80.1 °F 81.9 °F 64.9 °F 60% 29.85 in 10.0 mi NNW 11.5 mph - N/A   Clear
9:54 PM 77.0 °F - 66.0 °F 69% 29.86 in 10.0 mi NW 8.1 mph - N/A   Clear
10:54 PM 75.9 °F - 66.0 °F 71% 29.87 in 10.0 mi NW 3.5 mph - N/A   Clear
11:54 PM 75.0 °F - 66.0 °F 73% 29.86 in 10.0 mi Calm Calm - N/A   Clear